Fairbanks, AK

5:58 PM AKDT on September 26, 2016 (GMT -0800)
Fairbanks International

Weather History for PAFA - December, 2010

Change the Weather History Date:

Saturday, December 4, 2010

  Actual Average Record
Temperature  
Mean Temperature 6 °F -2 °F  
Max Temperature 14 °F 6 °F 52 °F (1934)
Min Temperature -2 °F -11 °F -53 °F (1935)
Degree Days  
Heating Degree Days 59 68  
Month to date heating degree days 297 269  
Since 1 July heating degree days 3840 4400  
Cooling Degree Days 0 0  
Month to date cooling degree days 0 0  
Year to date cooling degree days 66 61  
Moisture  
Dew Point 4 °F    
Average Humidity 83    
Maximum Humidity 92    
Minimum Humidity 73    
Precipitation  
Precipitation 0.04 in 0.02 in 0.30 in (1927)
Month to date precipitation 0.04 0.08  
Year to date precipitation 10.12 10.25  
Snow  
Snow 0.60 in 0.40 in 4.80 in (1994)
Month to date snowfall 0.6 1.5  
Since 1 July snowfall 19.9 27.3  
Snow Depth 10.00 in    
Sea Level Pressure  
Sea Level Pressure 29.57 in    
Wind  
Wind Speed 3 mph (SW)    
Max Wind Speed 6 mph    
Max Gust Speed -    
Visibility 8 miles    
Events Snow    
T = Trace of Precipitation, MM = Missing Value Source: NWS Daily Summary

Daily Weather History Graph

Daily Weather History Graph

Search for Another Location

Airport or City:

Trip Planner

Search our weather history database for the weather conditions in past years. The results will help you decide how hot, cold, wet, or windy it might be!

Date:

Astronomy

Dec. 04, 2010 Rise Set
Actual Time 10:28 AM AKST 2:55 PM AKST
Civil Twilight 9:10 AM AKST 4:12 PM AKST
Nautical Twilight 8:02 AM AKST 5:21 PM AKST
Astronomical Twilight 7:01 AM AKST 6:21 PM AKST
Moon 10:10 AM AKST (12/4) 1:28 PM AKST (12/4)
Length of Visible Light 7h 01m
Length of Day
4h 26m
Waning Crescent, 1% of the Moon is Illuminated
Dec 4
Waning Crescent
Dec 5
New
Dec 13
First Quarter
Dec 20
Full
Dec 27
Last Quarter

Hourly Weather History & Observations

Time (AKST) Temp. Windchill Dew Point Humidity Pressure Visibility Wind Dir Wind Speed Gust Speed Precip Events Conditions
12:53 AM 10.9 °F 4.7 °F 8.1 °F 88% 29.50 in 10.0 mi West 3.5 mph - N/A   Overcast
1:53 AM 12.0 °F - 8.1 °F 84% 29.50 in 10.0 mi Calm Calm - N/A   Overcast
2:53 AM 12.9 °F 6.9 °F 9.0 °F 84% 29.48 in 10.0 mi SW 3.5 mph - 0.01 in   Overcast
3:53 AM 12.9 °F 6.9 °F 9.0 °F 84% 29.46 in 10.0 mi SSW 3.5 mph - N/A   Mostly Cloudy
4:53 AM 12.9 °F 6.9 °F 8.1 °F 81% 29.45 in 10.0 mi Variable 3.5 mph - N/A   Mostly Cloudy
5:53 AM 12.9 °F 6.9 °F 7.0 °F 77% 29.45 in 10.0 mi SW 3.5 mph - N/A   Mostly Cloudy
6:53 AM 12.0 °F 4.1 °F 6.1 °F 77% 29.46 in 10.0 mi WSW 4.6 mph - N/A   Mostly Cloudy
7:53 AM 10.9 °F 1.4 °F 6.1 °F 81% 29.46 in 10.0 mi West 5.8 mph - N/A   Mostly Cloudy
8:53 AM 12.0 °F 5.9 °F 6.1 °F 77% 29.48 in 10.0 mi WSW 3.5 mph - N/A   Mostly Cloudy
9:53 AM 10.9 °F 2.9 °F 3.9 °F 73% 29.50 in 10.0 mi SSW 4.6 mph - N/A   Overcast
10:53 AM 10.0 °F 1.8 °F 5.0 °F 80% 29.52 in 3.0 mi SW 4.6 mph - 0.00 in Snow Light Snow
10:58 AM 10.4 °F 0.8 °F 5.0 °F 79% 29.48 in 1.5 mi SW 5.8 mph - 0.00 in Snow Light Snow
11:14 AM 8.6 °F 0.1 °F 6.8 °F 92% 29.49 in 0.8 mi WSW 4.6 mph - 0.01 in Snow Light Snow
11:53 AM 9.0 °F - 5.0 °F 84% 29.54 in 10.0 mi Calm Calm - 0.02 in Snow Light Snow
12:53 PM 9.0 °F 2.4 °F 5.0 °F 84% 29.56 in 10.0 mi WSW 3.5 mph - 0.00 in Snow Light Snow
1:53 PM 9.0 °F - 3.9 °F 80% 29.57 in 10.0 mi Calm Calm - 0.00 in   Mostly Cloudy
2:27 PM 8.6 °F - 3.2 °F 79% 29.54 in 10.0 mi Calm Calm - N/A   Mostly Cloudy
2:53 PM 5.0 °F - 1.0 °F 84% 29.58 in 10.0 mi Calm Calm - N/A   Mostly Cloudy
3:53 PM 3.0 °F - -0.0 °F 87% 29.61 in 9.0 mi Calm Calm - 0.00 in Snow Light Snow
4:53 PM 3.9 °F -5.3 °F -0.0 °F 84% 29.63 in 6.0 mi South 4.6 mph - 0.00 in Snow Light Snow
5:53 PM 3.9 °F - -0.0 °F 84% 29.66 in 10.0 mi Calm Calm - 0.00 in Snow Light Snow
6:53 PM 3.9 °F - -0.0 °F 84% 29.68 in 4.0 mi Calm Calm - 0.00 in Snow Light Snow
7:53 PM 3.9 °F - -0.0 °F 84% 29.71 in 6.0 mi Calm Calm - 0.00 in Snow Light Snow
8:53 PM 3.9 °F - -0.0 °F 84% 29.73 in 3.0 mi Calm Calm - 0.00 in Snow Light Snow
9:53 PM 3.0 °F - -0.0 °F 87% 29.76 in 6.0 mi Calm Calm - 0.01 in Snow Light Snow
10:53 PM 1.9 °F - -2.0 °F 83% 29.78 in 10.0 mi Calm Calm - 0.00 in   Overcast
11:53 PM -0.0 °F - -2.9 °F 88% 29.81 in 10.0 mi Calm Calm - N/A   Mostly Cloudy